Location: Lewisville
(33.0462°N, 96.9942°W)
Time: 10:57:10
(UTC-06:00)

X-37B - Pass Details

Date: 06 December 2021
Orbit: 334 x 337 km, 45.0° (Epoch: 11 January)

Event Time Altitude Azimuth Distance (km) Brightness Sun altitude
Rises 18:28:50 0° 253° (WSW) 2,093 6.3 -14.0°
Reaches altitude 10° 18:30:55 10° 263° (W) 1,259 4.5 -14.4°
Maximum altitude 18:33:33 34° 331° (NNW) 567 1.5 -14.9°
Enters shadow 18:34:34 25° 15° (NNE) 715 1.6 -15.1°
